Regional Weather Roundup
Issued by NWS

Home | Current Version | Previous Version | Text Only | Print | Product List | Glossary Off
Versions: 1 2 3 4 5 6 7 8 9 10 11 12 13 14 15 16 17 18 19 20 21 22 23 24 25 26 27 28 29 30 31 32 33 34 35 36 37 38 39 40 41 42 43 44 45 46 47 48 49 50

412
ASUS45 KABQ 240701
RWRNM
NEW MEXICO REGIONAL WEATHER ROUNDUP
NATIONAL WEATHER SERVICE ALBUQUERQUE NM
1200 AM MST TUE JAN 24 2017

NOTE: "FAIR" MEANS FEW OR NO CLOUDS BELOW 12,000 FEET AGL WITH NO
       SIGNIFICANT WEATHER OR OBSTRUCTIONS TO VISION.

      THIS PRODUCT IS RELEASED AS TWO VERSIONS.  ONE VERSION NEAR
      THE TOP OF THE HOUR CONTAINING PRELIMINARY DATA FROM ALBUQUERQUE
      AND OTHER STATIONS.  A FINAL VERSION WITH ADDITIONAL DATA IS
      ISSUED ABOUT 10 MINUTES AFTER THE HOUR.

NMZ501-503-504-510>518-240800-
NORTHWEST PLATEAU/NORTHCENTRAL MOUNTAINS

CITY           SKY/WX    TMP DP  RH WIND       PRES   REMARKS
FARMINGTON     FLURRIES  30  29  96 E5        29.63F WCI  25
LOS ALAMOS     CLOUDY    33  28  80 S9        29.62F WCI  25
SANTA FE       LGT SNOW  34  31  88 W16G26    29.63R FOG     WCI  24
TAOS           CLOUDY    32  25  74 W7        29.60S WCI  26
ANGEL FIRE     SNOW      28  26  92 SW16      29.57F VSB 1/2 WCI  16

$$
NMZ402-403-502-505>509-240800-
WESTCENTRAL MOUNTAINS/SOUTHWEST MOUNTAINS

CITY           SKY/WX    TMP DP  RH WIND       PRES   REMARKS
GALLUP         LGT SNOW  30  29  96 SW14      29.66S VSB 1   WCI  19
GRANTS         LGT SNOW  31  30  96 CALM      29.68S
SILVER CITY    FAIR      43  27  54 SW14G21   29.74S

$$
NMZ407-409-411-412-240800-
SOUTHERN DESERTS

CITY           SKY/WX    TMP DP  RH WIND       PRES   REMARKS
DEMING         FAIR      51  28  41 W20G30    29.72S
LAS CRUCES     FAIR      52  31  44 SW17G24   29.72F
ALAMOGORDO     FAIR      54  32  43 S16G25    29.71S
T OR C         FAIR      51  32  48 SW23G32   29.63F

$$
NMZ519>523-240800-
CENTRAL VALLEYS/CENTRAL HIGHLANDS

CITY           SKY/WX    TMP DP  RH WIND       PRES   REMARKS
ALBUQUERQUE    MOCLDY    39  33  79 W10       29.65S WCI  32
DOUBLE EAGLE   DRIZZLE   36  33  88 W14G20    29.66S WCI  27
MORIARTY ARPT  CLOUDY    45  24  44 SW15G23   29.62F
CLINES CORNERS MOCLDY    39  27  62 SW30G38   29.60F WCI  27
BELEN          MOCLDY    46  29  52 W15       29.64S
SOCORRO        CLOUDY    48  31  51 S8        29.62F

$$
NMZ524>526-539-540-240800-
SOUTHCENTRAL MOUNTAINS

CITY           SKY/WX    TMP DP  RH WIND       PRES   REMARKS
RUIDOSO        NOT AVBL

$$
NMZ527>531-240800-
NORTHEAST HIGHLANDS/NORTHEAST PLAINS

CITY           SKY/WX    TMP DP  RH WIND       PRES   REMARKS
LAS VEGAS      FAIR      39  27  62 S22G30    29.55F WCI  29
RATON          CLOUDY    33  25  72 S7        29.51F WCI  27
CLAYTON        FAIR      39  33  79 SW10      29.52F WCI  32

$$
NMZ532>537-240800-
EASTCENTRAL PLAINS

CITY           SKY/WX    TMP DP  RH WIND       PRES   REMARKS
TUCUMCARI      FAIR      46  29  51 SW12      29.55F
CANNON AFB     FAIR      45  27  48 SW13      29.62F
CLOVIS AIRPORT FAIR      43  27  52 SW13      29.62F

$$
NMZ028-029-538-240800-
SOUTHEAST PLAINS

CITY           SKY/WX    TMP DP  RH WIND       PRES   REMARKS
ROSWELL        FAIR      54  25  32 SW18      29.62F
ARTESIA        FAIR      50  28  43 SW14      29.66F
CARLSBAD       FAIR      50  29  44 SW9       29.66F


$$




USA.gov is the U.S. government's official web portal to all federal, state and local government web resources and services.